User: anonymous   Login
Location: Unspecified
(0.0000°N, 0.0000°E)
Time: 08:54:27
(UTC+00:00)
Language:

STARLINK-2644 - Orbit

View from above orbital plane
View from above orbital plane
View from above satellite
View from above satellite

Ground track
Ground track

The orbit is defined by the following mean orbital elements,

1 48442U          26145.36674204 +.00000000 +00000-0 +96212-3 0 00008
2 48442  53.1599 180.9369 0001025  73.9841 286.1278 15.42227417    01
Epoch (UTC): 25 May 2026 08:48:06
Eccentricity: 0.0001025
inclination: 53.1599°
perigee height: 439 km
apogee height: 440 km
right ascension of ascending node: 180.9369°
argument of perigee: 73.9841°
revolutions per day: 15.42227417
mean anomaly at epoch: 286.1278°

The dashed part of the orbit path shows where the satellite is in the earth's shadow,  

DLR